Location: Hurecourt
(47.9030°N, 6.0653°E)
Time: 20:01:06
(UTC+00:00)

Lacrosse 5 - Pass Details

Date: 14 July 2020
Orbit: 717 x 720 km, 57.0° (Epoch: 11 August)

Event Time Altitude Azimuth Distance (km) Brightness Sun altitude
Exits shadow 01:49:49 - 269° (W) 2,842 4.6 -14.8°
Reaches altitude 10° 01:51:36 10° 276° (W) 2,202 4.1 -14.6°
Maximum altitude 01:56:16 36° 343° (NNW) 1,138 3.3 -14.2°
Drops below altitude 10° 02:00:57 10° 50° (NE) 2,207 5.6 -13.8°
Sets 02:03:31 0° 59° (ENE) 3,128 6.4 -13.5°
